Date String (YYYY-MM-DD hh:mm:ss) UTC,Instrument flags,absolute air pressure of the measurement (hPa),sample flow rate (lpm),inlet stack bypass flow (lpm),air temperature of the measurement (°C),ambient temperature measured by the external sensor (°C),aerosol sample conditioner tube jacket temperature (°C),OPC LED temperature (°C),internal box temperature (°C),relative humidity of the measurement (%),span deviation,mass concentration of particles derived from Lorenz-Mie calculation of OPC scattering (μg/m³),mass concentration of particles derived from Lorenz-Mie calculation of OPC scattering (μg/m³),mass concentration of particles derived from Lorenz-Mie calculation of OPC scattering (μg/m³)
DateTimeUTC,F1_M11,P_M11,Q1_M11,Q2_M11,T1_M11,T2_M11,T3_M11,T4_M11,T5_M11,U1_M11,ZSPAN_M11,X2_M11,X0_M11,X1_M11
2024-05-28 02:00:00,SystemResetWarning,0832.5,5.01,000.00,030.0,026.9,000.0,038.6,030.7,013.3,0000.0,0004.14,0014.33,0003.17
2024-05-28 02:01:00,SystemResetWarning,0832.6,5.01,000.00,029.7,026.5,000.0,038.5,030.4,013.5,0000.0,0004.12,0014.52,0003.17
2024-05-28 02:02:00,SystemResetWarning,0832.5,4.99,000.00,029.6,026.9,000.0,038.4,030.6,013.7,0000.0,0004.13,0014.37,0003.16
2024-05-28 02:03:00,SystemResetWarning,0832.6,5.00,000.00,029.6,027.3,000.0,038.3,030.8,013.7,0000.0,0004.12,0014.22,0003.16
2024-05-28 02:04:00,SystemResetWarning,0832.7,5.01,000.00,029.6,027.8,000.0,038.2,031.1,013.7,0000.0,0004.06,0014.06,0003.16
2024-05-28 02:05:00,SystemResetWarning,0832.6,5.00,000.00,029.7,028.1,000.0,038.2,031.2,013.6,0000.0,0004.03,0013.39,0003.16
2024-05-28 02:06:00,SystemResetWarning,0832.6,5.00,000.00,029.7,028.4,000.0,038.2,031.3,013.7,0000.0,0004.01,0013.48,0003.17
2024-05-28 02:07:00,SystemResetWarning,0832.7,4.99,000.00,029.8,028.7,000.0,038.2,031.4,013.6,0000.0,0004.01,0013.86,0003.19
2024-05-28 02:08:00,SystemResetWarning,0832.7,5.00,000.00,029.8,028.9,000.0,038.2,031.5,013.6,0000.0,0004.03,0014.27,0003.19
2024-05-28 02:09:00,SystemResetWarning,0832.7,5.00,000.00,029.9,029.1,000.0,038.2,031.6,013.6,0000.0,0004.03,0014.44,0003.19
2024-05-28 02:10:00,SystemResetWarning,0832.7,4.99,000.00,030.0,029.2,000.0,038.2,031.7,013.6,0000.0,0004.01,0014.02,0003.20
2024-05-28 02:11:00,SystemResetWarning,0832.7,5.00,000.00,030.0,029.3,000.0,038.2,031.8,013.7,0000.0,0004.02,0012.83,0003.20
2024-05-28 02:12:00,SystemResetWarning,0832.9,5.00,000.00,030.1,029.5,000.0,038.2,031.8,013.6,0000.0,0004.09,0012.32,0003.21
2024-05-28 02:13:00,SystemResetWarning,0832.8,5.00,000.00,030.1,029.6,000.0,038.3,031.9,013.6,0000.0,0004.08,0012.26,0003.21
2024-05-28 02:14:00,SystemResetWarning,0832.7,5.00,000.00,030.2,029.7,000.0,038.3,032.0,013.5,0000.0,0004.10,0012.64,0003.22
2024-05-28 02:15:00,SystemResetWarning,0832.9,5.00,000.00,030.2,029.7,000.0,038.3,032.0,013.5,0000.0,0004.12,0013.20,0003.23
2024-05-28 02:16:00,SystemResetWarning,0832.7,5.00,000.00,030.3,029.8,000.0,038.4,032.1,013.5,0000.0,0004.11,0013.72,0003.24
2024-05-28 02:17:00,SystemResetWarning,0832.8,5.01,000.00,030.3,029.9,000.0,038.4,032.1,013.4,0000.0,0004.16,0013.71,0003.25
2024-05-28 02:18:00,SystemResetWarning,0832.8,4.99,000.00,030.4,029.6,000.0,038.5,032.0,013.4,0000.0,0004.18,0013.86,0003.24
2024-05-28 02:19:00,SystemResetWarning,0832.7,4.99,000.00,030.1,027.3,000.0,038.5,030.8,013.6,0000.0,0004.10,0013.45,0003.23
2024-05-28 02:20:00,SystemResetWarning,0832.7,5.02,000.00,029.7,026.4,000.0,038.5,030.4,014.1,0000.0,0004.08,0013.15,0003.23
2024-05-28 02:21:00,SystemResetWarning,0832.7,4.99,000.00,029.5,026.8,000.0,038.4,030.5,014.3,0000.0,0004.16,0014.12,0003.24
2024-05-28 02:22:00,SystemResetWarning,0832.9,4.99,000.00,029.5,027.2,000.0,038.3,030.7,014.3,0000.0,0004.20,0014.57,0003.25
2024-05-28 02:23:00,SystemResetWarning,0832.8,5.00,000.00,029.6,027.6,000.0,038.2,030.9,014.5,0000.0,0004.19,0015.02,0003.26
2024-05-28 02:24:00,SystemResetWarning,0832.8,5.01,000.00,029.6,028.0,000.0,038.1,031.1,014.6,0000.0,0004.21,0014.71,0003.27
2024-05-28 02:25:00,SystemResetWarning,0832.8,5.00,000.00,029.6,028.3,000.0,038.1,031.2,014.6,0000.0,0004.24,0014.19,0003.29
2024-05-28 02:26:00,SystemResetWarning,0832.8,5.00,000.00,029.7,028.5,000.0,038.1,031.3,015.1,0000.0,0004.26,0014.00,0003.30
2024-05-28 02:27:00,SystemResetWarning,0832.8,5.00,000.00,029.8,028.8,000.0,038.1,031.4,015.6,0000.0,0004.29,0012.62,0003.31
2024-05-28 02:28:00,SystemResetWarning,0832.9,5.00,000.00,029.8,028.9,000.0,038.1,031.5,015.3,0000.0,0004.31,0013.24,0003.31
2024-05-28 02:29:00,SystemResetWarning,0833.2,4.99,000.00,029.9,029.1,000.0,038.1,031.6,015.7,0000.0,0004.35,0013.01,0003.32
2024-05-28 02:30:00,SystemResetWarning,0833.4,5.00,000.00,029.9,029.2,000.0,038.1,031.7,015.6,0000.0,0004.40,0013.03,0003.33
2024-05-28 02:31:00,SystemResetWarning,0833.3,4.99,000.00,030.0,029.4,000.0,038.2,031.8,015.3,0000.0,0004.42,0013.50,0003.34
2024-05-28 02:32:00,SystemResetWarning,0833.4,5.00,000.00,030.0,029.5,000.0,038.2,031.8,015.3,0000.0,0004.44,0013.22,0003.35
2024-05-28 02:33:00,SystemResetWarning,0833.0,5.00,000.00,030.1,029.6,000.0,038.2,031.9,015.1,0000.0,0004.42,0013.47,0003.35
2024-05-28 02:34:00,SystemResetWarning,0833.0,5.00,000.00,030.2,029.6,000.0,038.2,031.9,015.0,0000.0,0004.41,0014.22,0003.35
2024-05-28 02:35:00,SystemResetWarning,0833.0,5.00,000.00,030.2,029.7,000.0,038.3,032.0,015.1,0000.0,0004.44,0014.71,0003.34
2024-05-28 02:36:00,SystemResetWarning,0833.0,5.00,000.00,030.3,029.8,000.0,038.3,032.0,015.1,0000.0,0004.41,0017.99,0003.33
2024-05-28 02:37:00,SystemResetWarning,0833.1,5.00,000.00,030.3,029.8,000.0,038.4,032.1,014.9,0000.0,0004.44,0018.64,0003.31
2024-05-28 02:38:00,SystemResetWarning,0833.4,5.00,000.00,030.4,029.9,000.0,038.4,032.1,014.7,0000.0,0004.48,0020.53,0003.32
2024-05-28 02:39:00,SystemResetWarning,0833.0,5.00,000.00,030.4,030.0,000.0,038.4,032.2,014.5,0000.0,0004.47,0020.21,0003.32
2024-05-28 02:40:00,SystemResetWarning,0833.2,4.99,000.00,030.4,029.5,000.0,038.5,031.9,014.4,0000.0,0004.39,0020.03,0003.32
2024-05-28 02:41:00,SystemResetWarning,0832.9,4.99,000.00,030.1,027.0,000.0,038.5,030.8,014.6,0000.0,0004.37,0020.90,0003.32
2024-05-28 02:42:00,SystemResetWarning,0833.3,5.02,000.00,029.7,026.4,000.0,038.5,030.4,014.8,0000.0,0004.36,0021.62,0003.32
2024-05-28 02:43:00,SystemResetWarning,0833.0,4.99,000.00,029.6,026.7,000.0,038.4,030.5,014.9,0000.0,0004.34,0021.63,0003.31
2024-05-28 02:44:00,SystemResetWarning,0833.0,5.00,000.00,029.5,027.1,000.0,038.3,030.8,014.8,0000.0,0004.35,0022.03,0003.30
2024-05-28 02:45:00,SystemResetWarning,0833.2,5.00,000.00,029.6,027.6,000.0,038.2,030.9,014.9,0000.0,0004.41,0021.48,0003.31
2024-05-28 02:46:00,SystemResetWarning,0833.1,5.00,000.00,029.6,027.9,000.0,038.1,031.1,014.9,0000.0,0004.39,0022.09,0003.31
2024-05-28 02:47:00,SystemResetWarning,0833.3,5.00,000.00,029.7,028.2,000.0,038.1,031.2,014.9,0000.0,0004.37,0021.24,0003.32
2024-05-28 02:48:00,SystemResetWarning,0833.1,4.99,000.00,029.7,028.5,000.0,038.1,031.4,014.8,0000.0,0004.38,0021.35,0003.32
2024-05-28 02:49:00,SystemResetWarning,0833.4,4.99,000.00,029.8,028.7,000.0,038.1,031.4,014.7,0000.0,0004.32,0021.13,0003.31
2024-05-28 02:50:00,SystemResetWarning,0833.1,5.00,000.00,029.8,028.9,000.0,038.1,031.5,014.5,0000.0,0004.31,0021.02,0003.31
2024-05-28 02:51:00,SystemResetWarning,0833.2,5.01,000.00,029.9,029.0,000.0,038.1,031.6,014.4,0000.0,0004.35,0022.06,0003.31
2024-05-28 02:52:00,SystemResetWarning,0833.2,5.01,000.00,029.9,029.2,000.0,038.1,031.7,014.4,0000.0,0004.38,0022.34,0003.30
2024-05-28 02:53:00,SystemResetWarning,0833.2,5.00,000.00,030.0,029.3,000.0,038.1,031.8,014.5,0000.0,0004.43,0022.15,0003.30
2024-05-28 02:54:00,SystemResetWarning,0833.2,5.00,000.00,030.0,029.4,000.0,038.2,031.8,014.5,0000.0,0004.49,0021.58,0003.31
2024-05-28 02:55:00,SystemResetWarning,0833.2,5.00,000.00,030.1,029.5,000.0,038.2,031.9,014.4,0000.0,0004.49,0021.72,0003.33
2024-05-28 02:56:00,SystemResetWarning,0833.2,4.99,000.00,030.1,029.6,000.0,038.2,031.9,014.4,0000.0,0004.49,0023.10,0003.33
2024-05-28 02:57:00,SystemResetWarning,0833.3,4.99,000.00,030.2,029.6,000.0,038.2,031.9,014.4,0000.0,0004.52,0023.64,0003.33
2024-05-28 02:58:00,SystemResetWarning,0833.3,5.00,000.00,030.2,029.7,000.0,038.3,032.0,014.4,0000.0,0004.49,0022.48,0003.32
2024-05-28 02:59:00,SystemResetWarning,0833.3,5.00,000.00,030.3,029.7,000.0,038.3,032.0,014.3,0000.0,0004.41,0020.91,0003.30
